| time (UTC) | temp C | wind direction | speed KPH | gust KPH | rain 1hr cm | rain 24hr cm | rain mn cm | humidity % | barometer mb |
| 20260504183105 | 23 | 150 | 4.8 | 19.3 | 0.00 | 0.00 | 0.00 | 38 | 1015.0 |
| 20260504181606 | 22 | 150 | 6.4 | 14.5 | 0.00 | 0.00 | 0.00 | 39 | 1015.2 |
| 20260504180126 | 22 | 150 | 6.4 | 20.9 | 0.00 | 0.00 | 0.00 | 39 | 1015.4 |
| 20260504174558 | 22 | 150 | 1.6 | 9.7 | 0.00 | 0.00 | 0.00 | 40 | 1015.4 |
| 20260504173108 | 22 | 150 | 3.2 | 11.3 | 0.00 | 0.00 | 0.00 | 39 | 1015.5 |
| 20260504171612 | 21 | 150 | 6.4 | 12.9 | 0.00 | 0.00 | 0.00 | 41 | 1015.5 |
| 20260504160112 | 21 | 150 | 3.2 | 11.3 | 0.00 | 0.00 | 0.00 | 42 | 1016.6 |
| 20260504150104 | 18 | 150 | 6.4 | 12.9 | 0.00 | 0.00 | 0.00 | 44 | 1017.4 |
| 20260504081600 | 5 | 0 | 0.0 | 0.0 | 0.00 | 0.00 | 0.00 | 86 | 1016.6 |
| 20260504080103 | 5 | 0 | 0.0 | 1.6 | 0.00 | 0.00 | 0.00 | 86 | 1016.5 |
| 20260504060104 | 6 | 0 | 0.0 | 0.0 | 0.00 | 0.00 | 0.00 | 81 | 1016.7 |
| 20260504044559 | 8 | 150 | 0.0 | 3.2 | 0.00 | 0.00 | 0.00 | 76 | 1017.0 |
| 20260504043101 | 8 | 150 | 0.0 | 1.6 | 0.00 | 0.00 | 0.00 | 73 | 1016.8 |
| 20260504041609 | 10 | 0 | 0.0 | 0.0 | 0.00 | 0.00 | 0.00 | 70 | 1016.7 |
| 20260504034625 | 9 | 0 | 0.0 | 0.0 | 0.00 | 0.00 | 0.00 | 71 | 1016.8 |
| 20260504033110 | 9 | 0 | 0.0 | 1.6 | 0.00 | 0.00 | 0.00 | 70 | 1016.7 |
| 20260504031559 | 9 | 0 | 0.0 | 0.0 | 0.00 | 0.00 | 0.00 | 68 | 1016.9 |
| 20260504030058 | 10 | 0 | 0.0 | 0.0 | 0.00 | 0.00 | 0.00 | 68 | 1017.0 |
| 20260504024559 | 10 | 0 | 0.0 | 0.0 | 0.00 | 0.00 | 0.00 | 67 | 1016.9 |
| 20260504023058 | 10 | 0 | 0.0 | 1.6 | 0.00 | 0.00 | 0.00 | 67 | 1016.8 |
| 20260504021600 | 10 | 150 | 0.0 | 0.0 | 0.00 | 0.00 | 0.00 | 63 | 1016.7 |
| 20260504020132 | 10 | 150 | 0.0 | 0.0 | 0.00 | 0.00 | 0.00 | 64 | 1016.6 |
| 20260504014603 | 11 | 0 | 0.0 | 0.0 | 0.00 | 0.00 | 0.00 | 64 | 1016.1 |
| 20260504013125 | 11 | 0 | 0.0 | 0.0 | 0.00 | 0.00 | 0.00 | 62 | 1015.9 |
| 20260504011557 | 12 | 0 | 0.0 | 0.0 | 0.00 | 0.00 | 0.00 | 60 | 1015.8 |
| 20260504010101 | 13 | 0 | 0.0 | 0.0 | 0.00 | 0.00 | 0.00 | 57 | 1015.8 |
| 20260504004559 | 14 | 0 | 0.0 | 0.0 | 0.00 | 0.00 | 0.00 | 52 | 1015.7 |
| 20260504003058 | 15 | 0 | 0.0 | 0.0 | 0.00 | 0.00 | 0.00 | 49 | 1015.6 |
| 20260504001601 | 16 | 0 | 0.0 | 0.0 | 0.00 | 0.00 | 0.00 | 46 | 1015.4 |
| 20260504000107 | 16 | 150 | 0.0 | 0.0 | 0.00 | 0.00 | 0.00 | 41 | 1015.4 |
| 20260503234600 | 17 | 150 | 1.6 | 3.2 | 0.00 | 0.00 | 0.00 | 39 | 1015.3 |
| 20260503233059 | 18 | 150 | 3.2 | 9.7 | 0.00 | 0.00 | 0.00 | 36 | 1015.2 |
| 20260503231559 | 19 | 150 | 3.2 | 8.0 | 0.00 | 0.00 | 0.00 | 35 | 1015.4 |
| 20260503230104 | 18 | 150 | 6.4 | 12.9 | 0.00 | 0.00 | 0.00 | 32 | 1015.3 |
| 20260503224613 | 18 | 150 | 4.8 | 12.9 | 0.00 | 0.00 | 0.00 | 33 | 1015.3 |
| 20260503223100 | 19 | 150 | 6.4 | 14.5 | 0.00 | 0.00 | 0.00 | 30 | 1015.4 |
| 20260503221604 | 20 | 150 | 3.2 | 12.9 | 0.00 | 0.00 | 0.00 | 28 | 1015.4 |
| 20260503220059 | 19 | 150 | 4.8 | 14.5 | 0.00 | 0.00 | 0.00 | 27 | 1015.4 |
| 20260503214559 | 18 | 150 | 6.4 | 17.7 | 0.00 | 0.00 | 0.00 | 29 | 1015.6 |
| 20260503213103 | 19 | 150 | 11.3 | 19.3 | 0.00 | 0.00 | 0.00 | 29 | 1015.8 |
| 20260503211600 | 18 | 150 | 6.4 | 14.5 | 0.00 | 0.00 | 0.00 | 30 | 1015.9 |
| 20260503210059 | 18 | 150 | 6.4 | 19.3 | 0.00 | 0.00 | 0.00 | 29 | 1016.0 |
| 20260503204620 | 18 | 150 | 4.8 | 12.9 | 0.00 | 0.00 | 0.00 | 30 | 1016.2 |
| 20260503203101 | 18 | 150 | 9.7 | 25.7 | 0.00 | 0.00 | 0.00 | 30 | 1016.5 |
| 20260503201559 | 17 | 150 | 6.4 | 20.9 | 0.00 | 0.00 | 0.00 | 32 | 1016.6 |
| 20260503200100 | 18 | 150 | 4.8 | 24.1 | 0.00 | 0.00 | 0.00 | 32 | 1017.0 |
| 20260503194610 | 17 | 150 | 6.4 | 16.1 | 0.00 | 0.00 | 0.00 | 33 | 1017.3 |
| 20260503193117 | 18 | 150 | 6.4 | 17.7 | 0.00 | 0.00 | 0.00 | 33 | 1017.3 |
| 20260503191618 | 17 | 150 | 3.2 | 19.3 | 0.00 | 0.00 | 0.00 | 32 | 1017.4 |
| 20260503184616 | 17 | 150 | 6.4 | 16.1 | 0.00 | 0.00 | 0.00 | 31 | 1017.8 |